INTELSAT 33E DEB, 64400

Orbit data source: Space-Track

INTELSAT 33E DEB, 64400 is space debris in GEO originally from a launch on Wed, 24 Aug 2016 UTC launched from the French Guiana (FRGUI). Debris objects in space refer to the collection of defunct objects orbiting the Earth. Examples of debris include non-operational satellites, rocket bodies, and fragments generated from explosions, collisions, or faulty payload assembly.

Loading next visibility...
Identifier
64400, 2016-053AE
Orbit
GEO
Country
Flag of USUS / ITSO
Related business
Manufacturer
Boeing/ES
Mission
Spacecraft
Bus & Motor
Unknown
Mass
Unknown
Launch date (UTC)
Icon of a cake. It is the launch day of the satellite!2016-08-24 (10 years ago)
Launch vehicle
Unknown
Launch site
French Guiana (FRGUI)
Object type
Payload
Rocket body
Debris
Shape & HBR
Unknown shape, 1.1 m
Radar Cross Section
RCS unknown

Expand to show TLE details & history
Last TLE update: 2 days ago

TLE from 2 days ago
0 INTELSAT 33E DEB
1 64400U 16053AE  26234.46220587 -.00000166  00000-0  00000-0 0  9994
2 64400   1.6511  79.8843 0411300 330.8335  27.2392  1.03352896  6843
Epoch: 2026-08-22T11:05Z
TLE epoch observation values (Epoch: 2026-08-22T11:05:34.587Z)
Latitude
0.00001°
Longitude
-56.95338°
Altitude
33,454.893 km
Speed
3.22 km/s
True Right ascension
05h 20m 51s
True Declination
0° 00' 00"
Sunlit
Object was in daylight at epoch
Visualization orbit readout
Latitude
Unknown
Longitude
Unknown
Altitude
Unknown
Speed
Unknown
Apparent Right ascension
Unknown
Apparent Declination
Unknown
Sunlit
N/A
Visualization observer readout
Local Sidereal Time
15:53:54
Azimuth
Unknown
Elevation
Unknown
Doppler factor
Unknown
Orbital elements
Apogee altitude
36,645.11 km
Perigee altitude
33,245.83 km
Semi-major axis
41,323.607 km
Eccentricity
0.04113
Inclination
1.6511°
RAAN
79.8843°
Arg. of periapsis
330.8335°
True anomaly
29.49897°
Mean anomaly
27.2392°
Eccentric anomaly
28.35854°
Mean motion
0.25837 °/min
Orbital period
1,393.34 mins
BSTAR
0
Loading maneuver chart data...
Computing Atmospheric mass density...
Loading historical data...
Loading historical data...
Loading historical data...
Loading historical data...
Loading historical data...
Loading historical data...
Loading historical data...

Documentation

Showing up to 5 results
|